• In Kazakhstan
  • List of Countries
  • For 7 days
  • Water Temperature
  • Satellite Maps
  • Weather Map
  • News
  • Weather Widgets
  • user-avatar
    Login

    Hourly Weather Bangor

    Today, 22 November, Wednesday

    Time Temperature Precipitation Wind Pressure Humidity
    00:00 +4°C° 0 mm 2 mps 758 mmHg 91%
    01:00 +3°C° 0 mm 2 mps 758 mmHg 92%
    02:00 +3°C° 0 mm 2 mps 758 mmHg 92%
    03:00 +3°C° 0 mm 2 mps 758 mmHg 93%
    04:00 +2°C° 0 mm 2 mps 758 mmHg 94%
    05:00 +3°C° 0 mm 1 mps 758 mmHg 94%
    06:00 +3°C° 0 mm 1 mps 758 mmHg 94%
    07:00 +3°C° 0 mm 1 mps 758 mmHg 94%
    08:00 +5°C° 0 mm 1 mps 758 mmHg 91%
    09:00 +5°C° 0 mm 2 mps 758 mmHg 87%
    10:00 +7°C° 0 mm 2 mps 758 mmHg 84%
    11:00 +8°C° 1 mm 1 mps 757 mmHg 88%
    12:00 +7°C° 1 mm 1 mps 756 mmHg 92%
    13:00 +6°C° 1 mm 0 mps 755 mmHg 96%
    14:00 +7°C° 2.6 mm 1 mps 754 mmHg 97%
    15:00 +6°C° 2.6 mm 1 mps 754 mmHg 97%
    16:00 +5°C° 2.6 mm 2 mps 753 mmHg 98%
    17:00 +4°C° 2.5 mm 3 mps 753 mmHg 96%
    18:00 +3°C° 2.5 mm 3 mps 752 mmHg 94%
    19:00 +3°C° 2.5 mm 4 mps 752 mmHg 92%
    20:00 +2°C° 0.9 mm 5 mps 752 mmHg 89%
    21:00 +2°C° 0.9 mm 5 mps 752 mmHg 87%
    22:00 +1°C° 0.9 mm 5 mps 752 mmHg 84%
    23:00 0°C° 0.1 mm 5 mps 752 mmHg 83%

    Tomorrow, 23 November, Thursday

    Time Temperature Precipitation Wind Pressure Humidity
    00:00 0°C° 0.1 mm 5 mps 753 mmHg 82%
    01:00 -1°C° 0.1 mm 5 mps 753 mmHg 81%
    02:00 -2°C° 0 mm 5 mps 753 mmHg 81%
    03:00 -3°C° 0 mm 4 mps 754 mmHg 81%
    04:00 -4°C° 0 mm 4 mps 755 mmHg 82%
    05:00 -4°C° 0 mm 4 mps 755 mmHg 81%
    06:00 -5°C° 0 mm 3 mps 756 mmHg 80%
    07:00 -5°C° 0 mm 3 mps 756 mmHg 79%
    08:00 -4°C° 0 mm 3 mps 757 mmHg 73%
    09:00 -2°C° 0 mm 3 mps 757 mmHg 66%
    10:00 -1°C° 0 mm 3 mps 757 mmHg 60%
    11:00 0°C° 0 mm 3 mps 757 mmHg 57%
    12:00 0°C° 0 mm 3 mps 756 mmHg 54%
    13:00 +1°C° 0 mm 3 mps 756 mmHg 51%
    14:00 +1°C° 0 mm 2 mps 756 mmHg 55%
    15:00 +1°C° 0 mm 2 mps 756 mmHg 59%
    16:00 +1°C° 0 mm 1 mps 756 mmHg 64%
    17:00 0°C° 0 mm 1 mps 756 mmHg 65%
    18:00 0°C° 0 mm 1 mps 756 mmHg 67%
    19:00 0°C° 0 mm 1 mps 756 mmHg 69%
    20:00 0°C° 0 mm 1 mps 756 mmHg 68%
    21:00 0°C° 0 mm 1 mps 756 mmHg 68%
    22:00 0°C° 0 mm 1 mps 756 mmHg 68%
    23:00 0°C° 0 mm 1 mps 755 mmHg 68%

    Day after tomorrow, 24 November, Friday

    Time Temperature Precipitation Wind Pressure Humidity
    00:00 0°C° 0 mm 1 mps 755 mmHg 68%
    01:00 0°C° 0 mm 1 mps 755 mmHg 67%
    02:00 -2°C° 0 mm 2 mps 754 mmHg 68%
    03:00 -1°C° 0 mm 2 mps 754 mmHg 69%
    04:00 -1°C° 0 mm 2 mps 754 mmHg 70%
    05:00 -2°C° 0 mm 2 mps 755 mmHg 71%
    06:00 -2°C° 0 mm 2 mps 755 mmHg 72%
    07:00 -2°C° 0 mm 2 mps 755 mmHg 73%
    08:00 +1°C° 0 mm 2 mps 756 mmHg 67%
    09:00 +2°C° 0 mm 3 mps 756 mmHg 62%
    10:00 +3°C° 0 mm 4 mps 757 mmHg 56%
    11:00 +4°C° 0 mm 4 mps 757 mmHg 54%
    12:00 +4°C° 0 mm 3 mps 757 mmHg 53%
    13:00 +4°C° 0 mm 3 mps 756 mmHg 51%
    14:00 +3°C° 0 mm 3 mps 757 mmHg 57%
    15:00 +3°C° 0 mm 2 mps 757 mmHg 63%
    16:00 +2°C° 0 mm 1 mps 757 mmHg 69%
    17:00 +2°C° 0 mm 1 mps 757 mmHg 71%
    18:00 +2°C° 0 mm 1 mps 757 mmHg 73%
    19:00 +1°C° 0 mm 1 mps 758 mmHg 75%
    20:00 +1°C° 0 mm 1 mps 757 mmHg 77%
    21:00 +1°C° 0 mm 2 mps 757 mmHg 78%
    22:00 +1°C° 0 mm 2 mps 757 mmHg 80%
    23:00 +1°C° 0 mm 2 mps 757 mmHg 82%

    25 November, Saturday

    Time Temperature Precipitation Wind Pressure Humidity
    00:00 +2°C° 0 mm 2 mps 756 mmHg 84%
    01:00 +2°C° 0 mm 2 mps 755 mmHg 86%
    02:00 +2°C° 0 mm 3 mps 755 mmHg 86%
    03:00 +2°C° 0 mm 3 mps 754 mmHg 86%
    04:00 +2°C° 0 mm 3 mps 754 mmHg 86%
    05:00 +2°C° 0 mm 3 mps 754 mmHg 87%
    06:00 +2°C° 0 mm 3 mps 753 mmHg 87%
    07:00 +2°C° 0 mm 3 mps 753 mmHg 87%
    08:00 +4°C° 0 mm 4 mps 753 mmHg 80%
    09:00 +6°C° 0 mm 5 mps 752 mmHg 73%
    10:00 +8°C° 0 mm 6 mps 752 mmHg 66%
    11:00 +8°C° 0 mm 6 mps 751 mmHg 66%
    12:00 +9°C° 0 mm 6 mps 750 mmHg 66%
    13:00 +10°C° 0 mm 6 mps 749 mmHg 66%
    14:00 +8°C° 0 mm 5 mps 749 mmHg 74%
    15:00 +8°C° 0 mm 3 mps 748 mmHg 82%
    16:00 +7°C° 0 mm 2 mps 748 mmHg 90%
    17:00 +7°C° 0 mm 2 mps 747 mmHg 92%
    18:00 +6°C° 0 mm 2 mps 747 mmHg 94%
    19:00 +6°C° 0 mm 2 mps 747 mmHg 96%
    20:00 +7°C° 0 mm 1 mps 747 mmHg 97%
    21:00 +7°C° 0 mm 1 mps 746 mmHg 97%
    22:00 +5°C° 0 mm 0 mps 746 mmHg 98%
    23:00 +5°C° 0.1 mm 0 mps 745 mmHg 98%

    26 November, Sunday

    Time Temperature Precipitation Wind Pressure Humidity
    00:00 +6°C° 0.1 mm 1 mps 744 mmHg 98%
    01:00 +7°C° 0.1 mm 1 mps 744 mmHg 97%
    02:00 +6°C° 0.4 mm 1 mps 744 mmHg 97%
    03:00 +6°C° 0.4 mm 1 mps 744 mmHg 97%
    04:00 +6°C° 0.4 mm 1 mps 743 mmHg 97%
    05:00 +6°C° 0.2 mm 1 mps 743 mmHg 95%
    06:00 +6°C° 0.2 mm 1 mps 743 mmHg 94%
    07:00 +5°C° 0.2 mm 2 mps 744 mmHg 93%
    08:00 +5°C° 0 mm 2 mps 744 mmHg 87%
    09:00 +5°C° 0 mm 3 mps 744 mmHg 82%
    10:00 +5°C° 0 mm 4 mps 744 mmHg 77%
    11:00 +5°C° 0 mm 4 mps 744 mmHg 73%
    12:00 +6°C° 0 mm 4 mps 744 mmHg 69%
    13:00 +6°C° 0 mm 4 mps 745 mmHg 65%
    14:00 +4°C° 0 mm 4 mps 745 mmHg 66%
    15:00 +3°C° 0 mm 4 mps 746 mmHg 67%
    16:00 +1°C° 0 mm 4 mps 747 mmHg 69%
    17:00 0°C° 0 mm 4 mps 748 mmHg 69%
    18:00 -2°C° 0 mm 4 mps 749 mmHg 69%
    19:00 -3°C° 0 mm 4 mps 749 mmHg 70%
    20:00 -3°C° 0 mm 4 mps 750 mmHg 69%
    21:00 -3°C° 0 mm 4 mps 750 mmHg 68%
    22:00 -3°C° 0 mm 4 mps 751 mmHg 68%
    23:00 -3°C° 0 mm 4 mps 751 mmHg 67%

    27 November, Monday

    Time Temperature Precipitation Wind Pressure Humidity
    00:00 -4°C° 0 mm 3 mps 752 mmHg 67%
    01:00 -4°C° 0 mm 3 mps 752 mmHg 67%
    02:00 -4°C° 0 mm 3 mps 753 mmHg 65%
    03:00 -4°C° 0 mm 3 mps 754 mmHg 64%
    04:00 -4°C° 0 mm 3 mps 755 mmHg 62%
    05:00 -4°C° 0 mm 3 mps 755 mmHg 61%
    06:00 -5°C° 0 mm 3 mps 756 mmHg 60%
    07:00 -5°C° 0 mm 3 mps 757 mmHg 59%
    08:00 -4°C° 0 mm 4 mps 757 mmHg 55%
    09:00 -3°C° 0 mm 4 mps 758 mmHg 51%
    10:00 -3°C° 0 mm 4 mps 758 mmHg 47%
    11:00 -2°C° 0 mm 4 mps 758 mmHg 44%
    12:00 -2°C° 0 mm 4 mps 758 mmHg 42%
    13:00 -1°C° 0 mm 4 mps 758 mmHg 40%
    14:00 -1°C° 0 mm 3 mps 758 mmHg 43%
    15:00 -2°C° 0 mm 3 mps 759 mmHg 46%
    16:00 -2°C° 0 mm 2 mps 759 mmHg 49%
    17:00 -3°C° 0 mm 2 mps 760 mmHg 50%
    18:00 -1°C° 0 mm 1 mps 760 mmHg 52%
    19:00 -1°C° 0 mm 1 mps 761 mmHg 54%
    20:00 -2°C° 0 mm 1 mps 761 mmHg 55%
    21:00 -2°C° 0 mm 1 mps 761 mmHg 56%
    22:00 -2°C° 0 mm 1 mps 761 mmHg 57%
    23:00 -2°C° 0 mm 1 mps 761 mmHg 57%
    Show more